This demonstration page uses our WeatherBlox Daily Observations layout. Learn more.

Left ArrowRight Arrow

Hourly Observations for May 7, 2021

Temp ( °F °C ) Dew Point ( °F °C ) Humidity (%) Winds ( mph kmh ) Pressure ( in mb ) Visibility ( mi km ) Precip ( " mm )
12:15 am 00:15 Clear 46 8 45 7 93 93 W 3 6 29.99 1016 10 16 0.00 0.00
12:35 am 00:35 Clear 46 8 43 6 87 87 WSW 6 9 29.99 1016 10 16 0.00 0.00
12:55 am 00:55 Clear 46 8 43 6 87 87 W 5 7 29.99 1016 10 16 0.00 0.00
1:15 am 01:15 Clear 46 8 43 6 87 87 W 3 6 29.98 1015 10 16 0.00 0.00
1:35 am 01:35 Clear 45 7 41 5 87 87 WNW 5 7 29.98 1015 10 16 0.00 0.00
1:55 am 01:55 Clear 45 7 43 6 93 93 Calm 29.97 1015 10 16 0.00 0.00
2:15 am 02:15 Clear 46 8 41 5 82 82 Calm 29.97 1015 10 16 0.00 0.00
2:35 am 02:35 Clear 46 8 41 5 82 82 Calm 29.96 1015 10 16 0.00 0.00
2:55 am 02:55 Clear 46 8 41 5 82 82 Calm 29.95 1014 10 16 0.00 0.00
3:15 am 03:15 Clear 45 7 41 5 87 87 Calm 29.95 1014 10 16 0.00 0.00
3:35 am 03:35 Clear 45 7 41 5 87 87 Calm 29.94 1014 10 16 0.00 0.00
3:55 am 03:55 Clear 43 6 39 4 87 87 Calm 29.94 1014 10 16 0.00 0.00
4:15 am 04:15 Clear 43 6 41 5 93 93 Calm 29.93 1014 10 16 0.00 0.00
4:35 am 04:35 Clear 41 5 39 4 93 93 Calm 29.94 1014 10 16 0.00 0.00
4:55 am 04:55 Partly Cloudy 41 5 41 5 100 100 Calm 29.93 1014 10 16 0.00 0.00
5:15 am 05:15 Clear 41 5 39 4 93 93 Calm 29.93 1014 10 16 0.00 0.00
5:35 am 05:35 Clear 41 5 37 3 87 87 Calm 29.93 1014 10 16 0.00 0.00
5:55 am 05:55 Clear 41 5 39 4 93 93 Calm 29.93 1014 10 16 0.00 0.00
6:15 am 06:15 Partly Cloudy 39 4 37 3 93 93 Calm 29.93 1013 10 16 0.00 0.00
6:35 am 06:35 Mostly Cloudy 41 5 39 4 93 93 Calm 29.93 1014 10 16 0.00 0.00
6:55 am 06:55 Mostly Cloudy 43 6 41 5 93 93 Calm 29.93 1014 10 16 0.00 0.00
7:15 am 07:15 Cloudy 45 7 41 5 87 87 Calm 29.93 1014 10 16 0.00 0.00
7:35 am 07:35 Cloudy 46 8 43 6 87 87 ENE 3 6 29.93 1014 10 16 0.00 0.00
7:55 am 07:55 Cloudy 46 8 43 6 87 87 N 3 6 29.93 1014 10 16 0.00 0.00
8:15 am 08:15 Cloudy 46 8 43 6 87 87 Calm 29.93 1014 10 16 0.00 0.00
8:35 am 08:35 Cloudy 46 8 43 6 87 87 Calm 29.92 1013 10 16 0.00 0.00
8:55 am 08:55 Cloudy 48 9 45 7 87 87 Calm 29.92 1013 10 16 0.00 0.00
9:15 am 09:15 Cloudy 48 9 43 6 82 82 Calm 29.92 1013 10 16 0.00 0.00
9:35 am 09:35 Cloudy 50 10 45 7 82 82 Calm 29.91 1013 10 16 0.00 0.00
9:55 am 09:55 Cloudy 52 11 45 7 77 77 Calm 29.90 1013 10 16 0.00 0.00
10:15 am 10:15 Cloudy 54 12 45 7 72 72 Calm 29.90 1013 10 16 0.00 0.00
10:35 am 10:35 Mostly Cloudy 55 13 45 7 67 67 Calm 29.90 1013 10 16 0.00 0.00
10:55 am 10:55 Mostly Cloudy 55 13 45 7 67 67 Calm 29.90 1013 10 16 0.00 0.00
11:15 am 11:15 Mostly Cloudy 59 15 45 7 59 59 SSE 6 9 29.90 1012 10 16 0.00 0.00
11:35 am 11:35 Mostly Cloudy 59 15 43 6 55 55 S 7 11 29.89 1012 10 16 0.00 0.00
11:55 am 11:55 Cloudy 61 16 41 5 48 48 S 9 15 29.89 1012 10 16 0.00 0.00
12:15 pm 12:15 Cloudy 61 16 41 5 48 48 S 9 15 29.89 1012 10 16 0.00 0.00
12:35 pm 12:35 Cloudy 61 16 43 6 52 52 S 7 11 29.88 1012 10 16 0.00 0.00
12:55 pm 12:55 Cloudy 61 16 43 6 52 52 S 7 11 29.88 1012 10 16 0.00 0.00
1:15 pm 13:15 Cloudy with Light Rain 61 16 43 6 52 52 WSW 5 7 29.88 1012 10 16 0.00 0.00
1:35 pm 13:35 Cloudy with Rain 57 14 46 8 67 67 WSW 9 15 29.88 1012 10 16 0.00 0.00
1:55 pm 13:55 Cloudy with Light Rain 54 12 46 8 77 77 WSW 6 9 29.88 1012 7 11 0.00 0.00
2:15 pm 14:15 Cloudy with Light Rain 54 12 48 9 82 82 W 6 9 29.88 1012 10 16 0.01 0.25
2:35 pm 14:35 Cloudy with Drizzle 54 12 48 9 82 82 WNW 3 6 29.87 1012 10 16 0.01 0.25
2:55 pm 14:55 Cloudy with Light Rain 55 13 48 9 77 77 WSW 3 6 29.88 1012 10 16 0.01 0.25
3:15 pm 15:15 Cloudy with Light Rain 54 12 46 8 77 77 W 6 9 29.88 1012 10 16 0.01 0.25
3:35 pm 15:35 Cloudy with Light Rain 52 11 46 8 82 82 WSW 5 7 29.88 1012 10 16 0.02 0.51
3:55 pm 15:55 Cloudy with Light Rain 52 11 48 9 88 88 WSW 3 6 29.88 1012 10 16 0.03 0.76
4:15 pm 16:15 Cloudy with Rain 52 11 50 10 94 94 undefined N/A 29.87 1012 10 16 0.01 0.25
4:35 pm 16:35 Cloudy with Light Rain 52 11 48 9 88 88 Calm 29.87 1012 10 16 0.01 0.25
4:55 pm 16:55 Cloudy with Light Rain 52 11 48 9 88 88 Calm 29.87 1012 10 16 0.01 0.25
5:15 pm 17:15 Cloudy with Light Rain 52 11 46 8 82 82 Calm 29.87 1012 10 16 0.00 0.00
5:35 pm 17:35 Cloudy with Rain 52 11 48 9 88 88 NNW 5 7 29.88 1012 7 11 0.01 0.25
5:55 pm 17:55 Cloudy with Light Rain 50 10 48 9 94 94 NNE 5 7 29.89 1012 10 16 0.02 0.51
6:15 pm 18:15 Cloudy with Light Rain 50 10 48 9 94 94 N 5 7 29.90 1012 10 16 0.01 0.25
6:35 pm 18:35 Cloudy 50 10 48 9 94 94 NNE 5 7 29.90 1012 10 16 0.01 0.25
6:55 pm 18:55 Cloudy with Light Rain 50 10 48 9 94 94 Calm 29.90 1012 10 16 0.01 0.25
7:15 pm 19:15 Cloudy 50 10 48 9 94 94 NW 6 9 29.91 1013 10 16 0.00 0.00
7:35 pm 19:35 Mostly Cloudy 48 9 48 9 100 100 WNW 8 13 29.91 1013 10 16 0.00 0.00
7:55 pm 19:55 Mostly Cloudy 50 10 46 8 88 88 NNW 8 13 29.92 1013 10 16 0.00 0.00
8:15 pm 20:15 Mostly Cloudy 48 9 45 7 87 87 N 7 11 29.92 1013 10 16 0.00 0.00
8:35 pm 20:35 Partly Cloudy 46 8 43 6 87 87 NNW 6 9 29.93 1014 10 16 0.00 0.00
8:55 pm 20:55 Clear 46 8 43 6 87 87 NNW 5 7 29.93 1014 10 16 0.00 0.00
9:15 pm 21:15 Clear 46 8 43 6 87 87 N 5 7 29.93 1014 10 16 0.00 0.00
9:35 pm 21:35 Clear 46 8 43 6 87 87 NNW 3 6 29.94 1014 10 16 0.00 0.00
9:55 pm 21:55 Clear 45 7 43 6 93 93 Calm 29.94 1014 10 16 0.00 0.00
10:15 pm 22:15 Clear 45 7 43 6 93 93 Calm 29.95 1014 10 16 0.00 0.00
10:35 pm 22:35 Clear 43 6 43 6 100 100 Calm 29.95 1014 10 16 0.00 0.00
10:55 pm 22:55 Clear 43 6 43 6 100 100 Calm 29.95 1014 10 16 0.00 0.00
11:15 pm 23:15 Clear 41 5 41 5 100 100 Calm 29.94 1014 10 16 0.00 0.00
11:35 pm 23:35 Clear 41 5 41 5 100 100 Calm 29.94 1014 10 16 0.00 0.00
11:55 pm 23:55 Clear 39 4 39 4 100 100 Calm 29.95 1014 10 16 0.00 0.00

Powered by AerisWeather